KAC965 SEGU-SEQM

Flight info

Callsign KAC965
Flight time 0h 26m
Altitude 24000
Route PAMIS G675 QIT
Aircraft B738/M-SDE2E3FGHIRWXY/LB1

Departure

Time 2026-04-25 14:39
Airport José Joaquín de Olmedo International Airport (SEGU)

Arrival

Time 2026-04-25 15:06
Airport Mariscal Sucre International Airport (SEQM)
Time Latitude Longitude Altitude Speed Heading
2026-04-25 14:39 -1.95199 -79.75344 9887 ft 294 kts 33°
2026-04-25 14:39 -1.93450 -79.74214 10445 ft 306 kts 33°
2026-04-25 14:39 -1.91588 -79.73029 10591 ft 325 kts 32°
2026-04-25 14:40 -1.89646 -79.71767 10897 ft 342 kts 34°
2026-04-25 14:40 -1.87652 -79.70406 11561 ft 348 kts 34°
2026-04-25 14:40 -1.85618 -79.69062 12282 ft 350 kts 33°
2026-04-25 14:40 -1.83537 -79.67741 12839 ft 356 kts 33°
2026-04-25 14:41 -1.81468 -79.66409 13394 ft 360 kts 33°
2026-04-25 14:41 -1.79340 -79.65042 14123 ft 361 kts 33°
2026-04-25 14:41 -1.77221 -79.63670 14734 ft 365 kts 33°
2026-04-25 14:41 -1.75111 -79.62282 15299 ft 369 kts 33°
2026-04-25 14:42 -1.72947 -79.60865 15886 ft 372 kts 33°
2026-04-25 14:42 -1.71510 -79.59928 16277 ft 374 kts 33°
2026-04-25 14:42 -1.68570 -79.58015 17025 ft 378 kts 33°
2026-04-25 14:42 -1.66375 -79.56588 17561 ft 382 kts 33°
2026-04-25 14:43 -1.64137 -79.55133 18093 ft 385 kts 33°
2026-04-25 14:43 -1.61875 -79.53662 18615 ft 388 kts 33°
2026-04-25 14:43 -1.59602 -79.52183 19126 ft 391 kts 33°
2026-04-25 14:43 -1.57314 -79.50695 19631 ft 393 kts 33°
2026-04-25 14:44 -1.55038 -79.49217 20159 ft 394 kts 33°
2026-04-25 14:44 -1.52726 -79.47717 20713 ft 395 kts 33°
2026-04-25 14:44 -1.50416 -79.46219 21275 ft 395 kts 33°
2026-04-25 14:44 -1.48117 -79.44729 21919 ft 392 kts 33°
2026-04-25 14:45 -1.45859 -79.43265 22577 ft 388 kts 33°
2026-04-25 14:45 -1.43593 -79.41795 23203 ft 386 kts 33°
2026-04-25 14:45 -1.41345 -79.40337 23824 ft 383 kts 33°
2026-04-25 14:45 -1.39106 -79.38884 24162 ft 384 kts 33°
2026-04-25 14:46 -1.36868 -79.37432 24166 ft 383 kts 33°
2026-04-25 14:46 -1.34629 -79.35979 24189 ft 382 kts 33°
2026-04-25 14:46 -1.32399 -79.34533 24208 ft 383 kts 33°
2026-04-25 14:46 -1.30184 -79.33097 24205 ft 383 kts 33°
2026-04-25 14:47 -1.27944 -79.31643 24216 ft 383 kts 33°
2026-04-25 14:47 -1.26431 -79.30661 24232 ft 384 kts 33°
2026-04-25 14:47 -1.23452 -79.28727 24243 ft 383 kts 33°
2026-04-25 14:47 -1.21214 -79.27276 24259 ft 383 kts 33°
2026-04-25 14:48 -1.19004 -79.25843 24269 ft 383 kts 33°
2026-04-25 14:48 -1.16761 -79.24388 24282 ft 384 kts 33°
2026-04-25 14:48 -1.14518 -79.22933 24287 ft 384 kts 33°
2026-04-25 14:48 -1.12277 -79.21479 24307 ft 384 kts 33°
2026-04-25 14:49 -1.10040 -79.20028 24300 ft 384 kts 33°
2026-04-25 14:49 -1.07816 -79.18586 24336 ft 383 kts 33°
2026-04-25 14:49 -1.05574 -79.17131 24338 ft 384 kts 33°
2026-04-25 14:49 -1.03331 -79.15676 24347 ft 384 kts 33°
2026-04-25 14:50 -1.01091 -79.14223 24358 ft 384 kts 33°
2026-04-25 14:50 -0.98869 -79.12782 24356 ft 384 kts 33°
2026-04-25 14:50 -0.96623 -79.11325 24378 ft 383 kts 33°
2026-04-25 14:50 -0.94385 -79.09873 24381 ft 383 kts 33°
2026-04-25 14:51 -0.92152 -79.08424 24391 ft 382 kts 33°
2026-04-25 14:51 -0.89919 -79.06975 24417 ft 382 kts 33°
2026-04-25 14:51 -0.87686 -79.05527 24448 ft 381 kts 33°
2026-04-25 14:51 -0.85484 -79.04099 24446 ft 379 kts 33°
2026-04-25 14:52 -0.83302 -79.02684 24436 ft 366 kts 34°
2026-04-25 14:52 -0.81342 -79.01119 24311 ft 357 kts 45°
2026-04-25 14:52 -0.79708 -78.99267 24033 ft 353 kts 53°
2026-04-25 14:52 -0.78801 -78.97921 23777 ft 352 kts 60°
2026-04-25 14:53 -0.77264 -78.95075 23337 ft 348 kts 62°
2026-04-25 14:53 -0.76138 -78.92950 22982 ft 345 kts 62°
2026-04-25 14:53 -0.75015 -78.90828 22637 ft 343 kts 61°
2026-04-25 14:53 -0.73902 -78.88733 22279 ft 342 kts 61°
2026-04-25 14:54 -0.72786 -78.86641 21925 ft 340 kts 61°
2026-04-25 14:54 -0.71684 -78.84581 21572 ft 338 kts 61°
2026-04-25 14:54 -0.70576 -78.82510 21249 ft 335 kts 61°
2026-04-25 14:54 -0.69474 -78.80453 20889 ft 334 kts 61°
2026-04-25 14:55 -0.68387 -78.78429 20541 ft 333 kts 61°
2026-04-25 14:55 -0.67288 -78.76383 20044 ft 337 kts 61°
2026-04-25 14:55 -0.66196 -78.74349 19845 ft 329 kts 61°
2026-04-25 14:55 -0.65112 -78.72328 19487 ft 328 kts 61°
2026-04-25 14:56 -0.64034 -78.70316 19172 ft 327 kts 61°
2026-04-25 14:56 -0.62958 -78.68315 18844 ft 326 kts 61°
2026-04-25 14:56 -0.61901 -78.66347 18512 ft 324 kts 62°
2026-04-25 14:56 -0.60834 -78.64358 18158 ft 324 kts 61°
2026-04-25 14:57 -0.59758 -78.62357 17534 ft 332 kts 61°
2026-04-25 14:57 -0.58668 -78.60327 17214 ft 330 kts 61°
2026-04-25 14:57 -0.57617 -78.58356 16995 ft 322 kts 61°
2026-04-25 14:57 -0.56566 -78.56412 16849 ft 314 kts 61°
2026-04-25 14:58 -0.55542 -78.54506 16707 ft 307 kts 62°
2026-04-25 14:58 -0.54543 -78.52643 16563 ft 300 kts 62°
2026-04-25 14:58 -0.53569 -78.50828 16436 ft 292 kts 62°
2026-04-25 14:58 -0.52619 -78.49057 16302 ft 285 kts 62°
2026-04-25 14:59 -0.51698 -78.47343 16055 ft 282 kts 62°
2026-04-25 14:59 -0.50768 -78.45612 15784 ft 281 kts 62°
2026-04-25 14:59 -0.49845 -78.43891 15502 ft 279 kts 62°
2026-04-25 14:59 -0.48934 -78.42205 15217 ft 278 kts 59°
2026-04-25 15:00 -0.48581 -78.41660 15104 ft 278 kts 51°
2026-04-25 15:00 -0.45868 -78.39990 14431 ft 282 kts 19°
2026-04-25 15:00 -0.43997 -78.39339 13965 ft 288 kts 19°
2026-04-25 15:00 -0.42086 -78.38670 13477 ft 292 kts 19°
2026-04-25 15:01 -0.40168 -78.37987 12980 ft 292 kts 19°
2026-04-25 15:01 -0.38253 -78.37329 12601 ft 287 kts 18°
2026-04-25 15:01 -0.36393 -78.36721 12239 ft 282 kts 18°
2026-04-25 15:01 -0.34539 -78.36117 11907 ft 277 kts 18°
2026-04-25 15:02 -0.32723 -78.35522 11564 ft 272 kts 18°
2026-04-25 15:02 -0.30936 -78.34936 11234 ft 266 kts 17°
2026-04-25 15:02 -0.29119 -78.34664 10902 ft 261 kts 358°
2026-04-25 15:02 -0.27375 -78.34781 10616 ft 248 kts 356°
2026-04-25 15:03 -0.25680 -78.34879 10295 ft 237 kts 358°
2026-04-25 15:03 -0.24072 -78.34943 10021 ft 223 kts 358°
2026-04-25 15:03 -0.22572 -78.35007 9693 ft 213 kts 357°
2026-04-25 15:03 -0.21110 -78.35069 9399 ft 206 kts 357°
2026-04-25 15:04 -0.19704 -78.35130 9125 ft 197 kts 357°
2026-04-25 15:04 -0.18367 -78.35188 8838 ft 188 kts 358°
2026-04-25 15:04 -0.17119 -78.35241 8582 ft 175 kts 357°
2026-04-25 15:04 -0.15940 -78.35292 8343 ft 163 kts 358°
2026-04-25 15:05 -0.14834 -78.35340 8101 ft 154 kts 357°
2026-04-25 15:05 -0.13792 -78.35385 7906 ft 145 kts 358°
2026-04-25 15:05 -0.12885 -78.35423 7870 ft 111 kts 358°
2026-04-25 15:06 -0.11851 -78.35468 7821 ft 37 kts 352°
2026-04-25 15:06 -0.11666 -78.35551 7823 ft 12 kts 324°
2026-04-25 15:06 -0.11620 -78.35614 7821 ft 12 kts 264°
2026-04-25 15:06 -0.11659 -78.35644 7821 ft 11 kts 183°
2026-04-25 15:07 -0.11737 -78.35641 7823 ft 11 kts 178°
2026-04-25 15:07 -0.11814 -78.35638 7825 ft 11 kts 178°
2026-04-25 15:07 -0.11891 -78.35635 7827 ft 12 kts 178°
2026-04-25 15:07 -0.11973 -78.35632 7827 ft 12 kts 178°
2026-04-25 15:08 -0.12054 -78.35628 7830 ft 11 kts 178°
2026-04-25 15:08 -0.12131 -78.35625 7834 ft 11 kts 177°
2026-04-25 15:08 -0.12223 -78.35621 7836 ft 13 kts 177°
2026-04-25 15:08 -0.12314 -78.35617 7842 ft 13 kts 181°
2026-04-25 15:09 -0.12358 -78.35682 7842 ft 13 kts 266°
2026-04-25 15:09 -0.12363 -78.35767 7834 ft 12 kts 267°
2026-04-25 15:09 -0.12368 -78.35910 7838 ft 4 kts 267°
2026-04-25 15:10 -0.12368 -78.35913 7841 ft 0 kts 267°